Regional Weather Roundup
Issued by NWS Green Bay, WI

Home | Current Version | Previous Version | Text Only | Print | Product List | Glossary On
Versions: 1 2 3 4 5 6 7 8 9 10 11 12 13 14 15 16 17 18 19 20 21 22 23 24 25 26 27 28 29 30 31 32 33 34 35 36 37 38 39 40 41 42 43 44 45 46 47 48 49 50
000
ASUS43 KGRB 191600
RWRGRB

NORTH-CENTRAL AND NORTHEAST WISCONSIN REGIONAL WEATHER ROUNDUP
NATIONAL WEATHER SERVICE GREEN BAY WI
1100 AM CDT SAT AUG 19 2017

WIZ005-009-010>012-018-019-191700-
NORTH CENTRAL WISCONSIN

CITY           SKY/WX    TMP DP  RH WIND       PRES   REMARKS
IRONWOOD       SUNNY     73  60  63 W12       29.91S
MANITOWISH WTR NOT AVBL
ARBOR VITAE    NOT AVBL
EAGLE RIVER    NOT AVBL
LAND O LAKES   NOT AVBL
RHINELANDER    SUNNY     73  60  63 W13G18    29.95S
PHILLIPS       NOT AVBL
ANTIGO         NOT AVBL
TOMAHAWK       NOT AVBL
MERRILL        NOT AVBL
$$

WIZ013-073-191700-
NORTHEAST WISCONSIN

CITY           SKY/WX    TMP DP  RH WIND       PRES   REMARKS
IRON MOUNTAIN  SUNNY     74  59  59 W10       29.89R
MARINETTE      SUNNY     73  63  70 VRB7      29.90R
$$

WIZ017-030-035>037-045-191700-
CENTRAL WISCONSIN

CITY           SKY/WX    TMP DP  RH WIND       PRES   REMARKS
MEDFORD        NOT AVBL
WAUSAU         SUNNY     73  59  61 W8        29.94S
MOSINEE        MOSUNNY   72  61  68 W10       29.97R
MARSHFIELD     SUNNY     73  61  65 W9        29.97R
WISC RAPIDS    SUNNY     75  63  66 W6        29.98R
STEVENS POINT  NOT AVBL
WAUPACA        NOT AVBL
SHAWANO        NOT AVBL
CLINTONVILLE   NOT AVBL
WAUTOMA        SUNNY     75  62  64 W9        29.96S
$$

WIZ038-039-048-051-191700-
FOX VALLEY

CITY           SKY/WX    TMP DP  RH WIND       PRES   REMARKS
NWS GREEN BAY  SUNNY     75  66  73 W10       29.93R
APPLETON       SUNNY     73  59  60 W8        29.93S
OSHKOSH        SUNNY     73  63  70 VRB7      29.95R
FOND DU LAC    SUNNY     73  62  68 NW5       29.96R
$$

WIZ022-050-052-191700-
EAST CENTRAL WISCONSIN

CITY           SKY/WX    TMP DP  RH WIND       PRES   REMARKS
EPHRAIM        NOT AVBL
WASHINGTON ISL NOT AVBL
STURGEON BAY   SUNNY     70  63  78 W10       29.91S
MANITOWOC      NOT AVBL
SHEBOYGAN      SUNNY     73  66  78 W6        29.94S
$$

LMZ563-521-522-541>543-191700-
LAKESHORE

STATION/POSITION TIME  TEMP    WIND        PRES    VSBY  WAVE
                       AIR SEA DIR/SP/G                  HT/PER
                 (UTC) (F)     (DEG/KT/KT) (MB)    (MI)  (FT/S)
SHEBOYGAN LKSHOR 1500   69     290/  8/ 10 1013.4R
KEWAUNEE LKSHORE 1530   70     270/  5/  9 1012.2S
NORTHPORT PIER   1540   72     280/  4/  8 1011.9S
N MID LAKE BUOY  1450   66 66  230/ 10/ 12 1011.9R         1/ 3
S GREEN BAY BUOY 1530   68 71  210/  8/ 12 1012.5F
SISTER BAY LKSHO 1518   71     250/ 12/ 13   N/A
MENOMINEE LKSHOR 1530   70     240/  8/ 12 1012.1R
$$




USA.gov is the U.S. government's official web portal to all federal, state and local government web resources and services.